INSAT-4CR

Last updated on Tue Mar 02 2021 07:44:53 GMT+0000 (Coordinated Universal Time)

1 32050U 07037A 21060.68371814 .00000036 00000-0 00000-0 0 9993 2 32050 1.9565 90.9059 0003466 312.0926 37.5195 0.99217911 31982

Satellite not in orbit

INSAT-4CR